User: anonymous   Login
Location: Unspecified
(0.0000°N, 0.0000°E)
Time: 21:11:31
(UTC+00:00)
Language:

DMSP 5D-2 F13 DEB - Orbit

View from above orbital plane
View from above orbital plane
View from above satellite
View from above satellite

Ground track
Ground track

The orbit data is extracted from the following two-line orbital elements,

1 40672U 95015FL  24057.04327340  .00017918  00000-0  54989-2 0  9993
2 40672  98.6892  93.6274 0003965 195.8279 164.2786 14.41664481463543
Epoch (UTC): 26 February 2024 01:02:18
Eccentricity: 0.0003965
inclination: 98.6892°
perigee height: 750 km
apogee height: 756 km
right ascension of ascending node: 93.6274°
argument of perigee: 195.8279°
revolutions per day: 14.41664481
mean anomaly at epoch: 164.2786°
orbit number at epoch: 46354

The dashed part of the orbit path shows where the satellite is in the earth's shadow,  

DLR